Location: Bushey
(51.6333°N, 0.3667°W)
Time: 20:52:00
(UTC+00:00)

Cosmos 1354 Rocket - Pass Details

Date: 03 March 2021
Orbit: 765 x 782 km, 74.0° (Epoch: 15 April)

Event Time Altitude Azimuth Distance (km) Brightness Sun altitude
Rises 18:16:55 0° 337° (NNW) 3,256 7.5 -5.7°
Reaches altitude 10° 18:19:24 10° 343° (NNW) 2,322 6.7 -6.1°
Maximum altitude 18:24:30 48° 58° (ENE) 996 4.3 -6.8°
Drops below altitude 10° 18:29:33 10° 133° (SE) 2,301 6.1 -7.6°
Sets 18:32:00 0° 139° (SE) 3,223 6.8 -8.0°
